Location: Newark
(45.8667°N, 9.7333°E)
Time: 20:04:39
(UTC+00:00)

Transit 4A - Visible Passes

Search period start: 29 January 2020 00:00
Search period end: 08 February 2020 00:00
Orbit: 872 x 973 km, 66.8° (Epoch: 29 January)

Date Brightness Start Highest point End Pass type
(mag) Time Alt. Az. Time Alt. Az. Time Alt. Az.
29 Jan 10.7 03:15:20 10° ESE 03:17:21 12° E 03:19:20 10° E visible
29 Jan 8.0 04:56:41 10° SSW 05:02:40 73° ESE 05:08:33 10° NE visible
30 Jan 10.2 03:22:23 10° SSE 03:26:20 18° ESE 03:30:14 10° ENE visible
30 Jan 7.7 05:05:58 10° SW 05:11:59 81° WNW 05:17:55 10° NNE visible
31 Jan 9.6 03:30:58 12° SSE 03:35:24 27° ESE 03:40:15 10° NE visible
31 Jan 7.9 05:15:29 10° SW 05:21:23 58° NW 05:27:11 10° NNE visible
01 Feb 9.0 03:41:51 26° SSE 03:44:32 39° ESE 03:49:58 10° NE visible
01 Feb 8.2 05:25:28 11° WSW 05:30:51 42° NW 05:36:26 10° NNE visible
02 Feb 8.3 03:52:12 44° SSE 03:53:44 57° ESE 03:59:30 10° NE visible
02 Feb 8.6 05:35:47 13° WSW 05:40:24 31° NW 05:45:37 10° NNE visible
03 Feb 10.4 02:18:39 13° E 02:18:39 13° E 02:20:26 10° ENE visible
03 Feb 7.8 04:02:13 68° S 04:03:00 82° ESE 04:08:55 10° NE visible
03 Feb 8.9 05:45:47 12° W 05:50:02 24° NW 05:54:45 10° NNE visible
04 Feb 10.1 02:28:27 18° E 02:28:27 18° E 02:30:52 10° ENE visible
04 Feb 7.6 04:12:00 70° W 04:12:21 72° NW 04:18:15 10° NNE visible
04 Feb 9.2 05:55:38 10° WNW 05:59:45 19° NNW 06:03:51 10° NNE visible
05 Feb 9.8 02:38:06 23° ENE 02:38:06 23° ENE 02:40:46 10° NE visible
05 Feb 7.9 04:21:39 51° NW 04:21:47 51° NW 04:27:30 10° NNE visible
05 Feb 9.5 06:06:11 10° WNW 06:09:33 15° NNW 06:12:54 10° N visible
06 Feb 9.6 02:47:37 27° ENE 02:47:37 27° ENE 02:50:24 10° NE visible
06 Feb 8.3 04:31:09 38° NW 04:31:16 38° NW 04:36:43 10° NNE visible
07 Feb 9.4 02:57:02 30° NE 02:57:02 30° NE 02:59:53 10° NE visible
07 Feb 8.7 04:40:34 28° NW 04:40:51 28° NW 04:45:53 10° NNE visible
